Zurück zum Katalog

STARLINK-36136

AktivKommunikationVLEO
NORAD 66967·PAYLOAD·🇺🇸 United States

Gestartet Dec 8, 2025 von Cape Canaveral Space Force Station

Loading…

Nächste Überflüge (nächste 24 Stunden)

TLE

AktuellSource: CelesTrak SupGP

Epoche: Sep 15, 2026, 03:47 UTC

1 66967C 25288J   26258.15812500  .00002708  00000+0  98114-4 0  2585
2 66967  43.0032  33.3595 0001534 267.6303 141.9712 15.27571332    18

Verfolge STARLINK-36136 in Echtzeit mit AllMySat

Download on the App Store